#timestamp,LO_Frequency,Hit,StdDev 
1593910815.5,286047004.0,N
1593910835.3,286047000.1,N
1593910855.2,286047004.3,N
1593910875.0,286047002.9,N
1593910875.9,286047002.9,N
1593910895.7,286047005.9,Y
1593910915.6,286047004.2,P
1593910935.4,286047004.3,P
1593910955.3,286047004.0,P
1593910975.1,286047002.1,N
1593910995.8,286047003.5,Y
1593911015.7,286047000.6,P
1593911035.5,286046999.2,N
1593911055.4,286046999.3,N
1593911075.2,286046999.2,N
1593911095.0,286046996.5,N
1593911095.9,286046996.5,N
1593911115.8,286046996.8,N
1593911135.6,286046999.6,N
1593911155.5,286046997.3,N
1593911175.3,286046997.2,N
1593911195.1,286046995.9,N
1593911215.9,286046993.3,Y
1593911235.7,286046997.4,P
1593911255.6,286046997.8,P
1593911275.4,286046997.1,P
1593911295.2,286046996.6,Y
1593911315.1,286047005.5,P
1593911316.0,286047005.5,N
1593911335.8,286047001.7,N
1593911355.6,286047001.8,N
1593911375.5,286047002.0,N
1593911395.3,286047004.2,N
1593911415.2,286047002.9,N
1593911435.9,286047001.9,N
1593911455.7,286047001.6,N
1593911475.6,286047002.5,N
1593911495.4,286047000.9,N
1593911515.3,286046999.8,N
1593911535.1,286047002.8,N
1593911536.0,286047002.8,N
1593911555.8,286047002.7,N
1593911575.7,286047003.0,N
1593911595.5,286047005.3,N
1593911615.3,286047005.9,Y
1593911635.2,286046998.1,P
1593911655.0,286047000.8,N
1593911655.9,286047000.8,N
1593911675.8,286047002.4,N
1593911695.6,286047004.8,Y
1593911715.4,286047001.6,P
1593911735.3,286046998.1,P
1593911755.1,286047001.1,N
1593911775.9,286047000.0,N
1593911795.7,286046998.3,N
1593911815.5,286046998.8,N
1593911835.4,286047002.8,N
1593911855.2,286046998.1,N
1593911875.0,286046998.7,N
1593911876.0,286046998.7,N
1593911895.8,286047000.6,N
1593911915.6,286047001.4,N
1593911935.5,286047000.4,N
1593911955.3,286047000.5,N
1593911975.1,286047000.6,N
1593911995.4,286047000.6,N
1593912015.2,286046999.8,N
1593912035.1,286047000.4,N
1593912036.0,286047000.4,N
1593912055.8,286047001.2,N
1593912075.6,286047001.0,N
1593912095.5,286046999.4,N
1593912115.3,286046998.3,N
1593912135.2,286047001.1,N
1593912155.9,286046998.4,N
1593912175.7,286046999.1,N
1593912195.6,286046998.4,N
1593912215.4,286047000.1,N
1593912235.2,286047002.0,N
1593912255.1,286046999.9,N
1593912256.0,286046999.9,N
1593912275.8,286046998.2,N
1593912295.7,286046999.9,N
1593912315.5,286047000.6,N
1593912335.3,286047000.9,N
1593912355.2,286046999.1,N
1593912375.0,286046998.1,N
1593912375.9,286046998.1,N
1593912395.8,286047000.4,N
1593912415.6,286046998.8,N
1593912435.4,286047000.8,N
1593912455.3,286047002.8,N
1593912475.1,286047002.6,N
1593912495.8,286047001.0,N
1593912515.7,286047001.9,N
1593912535.5,286047004.4,Y
1593912555.4,286047001.8,P
1593912575.2,286047004.4,P
1593912595.0,286047001.5,N
1593912595.9,286047001.5,N
1593912615.8,286047000.2,N
1593912635.6,286047004.4,Y
1593912655.5,286047001.6,P
1593912675.3,286047005.4,P
1593912695.1,286047006.1,P
1593912715.9,286047005.8,N
1593912735.7,286047004.3,N
1593912755.6,286047005.7,Y
1593912775.4,286047001.0,P
1593912795.2,286047000.1,N
1593912815.1,286047002.7,N
1593912816.0,286047002.7,N
1593912835.8,286047004.4,Y
1593912855.7,286047000.0,P
1593912875.5,286046995.1,P
1593912895.3,286046996.6,N
1593912915.2,286046997.8,N
1593912935.9,286046998.2,N
1593912955.7,286046999.7,N
1593912975.6,286047000.3,N
1593912995.4,286046998.2,N
1593913015.3,286046999.2,N
1593913035.1,286046997.8,N
1593913036.0,286046997.8,N
1593913055.8,286046995.8,N
1593913075.7,286046993.9,Y
1593913095.5,286046996.1,P
1593913115.4,286046996.1,P
1593913135.2,286046998.0,N
1593913155.0,286046996.2,Y
1593913155.9,286046996.2,P
1593913175.8,286046997.1,P
1593913195.6,286046997.5,P
1593913215.5,286046995.7,Y
1593913235.3,286046997.6,P
1593913255.1,286046994.9,P
1593913275.9,286046995.2,P
1593913295.7,286046997.5,N
1593913315.5,286046995.4,Y
1593913335.4,286047002.4,P
1593913355.2,286046998.1,N
1593913375.1,286046998.1,N
1593913376.0,286046998.1,N
1593913395.8,286046999.9,N
1593913415.6,286047000.2,N
1593913435.5,286047004.1,N
1593913455.3,286047004.4,N
1593913475.2,286047005.5,N
1593913495.9,286047005.0,N
1593913515.7,286047005.0,N
1593913535.6,286047006.7,N
1593913555.4,286047008.4,N
1593913575.2,286047005.6,N
1593913595.1,286047005.8,N
1593913596.0,286047005.8,N
1593913615.8,286047006.2,N
1593913635.7,286047006.7,N
1593913655.5,286047002.9,N
1593913675.3,286047005.3,N
1593913695.2,286047005.0,N
1593913715.0,286047006.3,N
1593913715.9,286047006.3,N
1593913735.8,286047004.9,N
1593913755.6,286047007.4,N
1593913775.4,286047007.4,N
1593913795.3,286047007.6,N
1593913815.1,286047004.7,N
1593913835.9,286047007.3,N
1593913855.7,286047005.4,N
1593913875.5,286047007.2,N
1593913895.4,286047004.7,N
1593913915.2,286047004.7,N
1593913935.0,286047007.5,Y
1593913935.9,286047007.5,P
1593913955.8,286047001.4,N
1593913975.6,286047001.8,N
1593913995.5,286047000.2,N
1593914015.3,286047001.5,N
1593914035.1,286047000.2,N
1593914055.9,286047000.2,N
1593914075.7,286047003.7,N
1593914095.6,286047004.1,N
1593914115.4,286047000.7,N
1593914135.2,286046998.2,N
1593914155.1,286046998.2,N
1593914156.0,286046998.2,N
1593914175.8,286046998.4,N
1593914195.6,286047000.3,N
1593914215.5,286047000.2,N
1593914235.3,286046999.1,N
1593914255.2,286046999.1,N
1593914275.9,286046999.0,N
1593914295.7,286047001.0,N
1593914315.6,286046999.4,N
1593914335.4,286046997.3,N
1593914355.3,286046999.5,N
1593914375.1,286046998.4,N
1593914376.0,286046998.4,N
1593914395.8,286047000.2,N
